KD8DNS Weather Reports


time (UTC)temp
F
wind
direction
speed
knots
gust
knots
rain 1hr
in
rain 24hr
in
rain mn
in
humidity
%
barometer
mb
20260507142746 0 10 1.7 4.3 0.00 0.00 0.00 1017.1
20260507142243 0 337 0.9 1.7 0.00 0.00 0.00 1017.1
20260507141739 0 23 0.9 4.3 0.00 0.00 0.00 1017.5
20260507141236 0 52 0.9 2.6 0.00 0.00 0.00 1017.4
20260507140732 0 342 2.6 4.3 0.00 0.00 0.00 1017.5
20260507140230 0 25 0.0 1.7 0.00 0.00 0.00 1017.6
20260507135727 0 13 0.9 1.7 0.00 0.00 0.00 1017.4
20260507135224 0 342 1.7 1.7 0.00 0.00 0.00 1017.5
20260507134720 0 6 0.0 1.7 0.00 0.00 0.00 1017.6
20260507134217 0 4 0.0 0.9 0.00 0.00 0.00 1017.7
20260507133713 0 97 1.7 4.3 0.00 0.00 0.00 1017.7
20260507133210 0 3 0.0 0.9 0.00 0.00 0.00 1017.5
20260507132708 0 45 0.9 1.7 0.00 0.00 0.00 1017.5
20260507132203 0 19 0.9 2.6 0.00 0.00 0.00 1017.6
20260507131700 0 43 0.9 4.3 0.00 0.00 0.00 1017.9
20260507131158 0 147 0.9 4.3 0.00 0.00 0.00 1017.9
20260507130654 0 0 1.7 2.6 0.00 0.00 0.00 1018.0
20260507130152 0 129 1.7 4.3 0.00 0.00 0.00 1017.8
20260507125651 0 26 1.7 4.3 0.00 0.00 0.00 1017.8
20260507125148 0 63 1.7 2.6 0.00 0.00 0.00 1017.7
20260507124644 0 42 0.9 0.9 0.00 0.00 0.00 1017.7
20260507124142 0 357 1.7 5.2 0.00 0.00 0.00 1017.7
20260507123640 0 316 1.7 2.6 0.00 0.00 0.00 1017.8
20260507123137 0 52 2.6 4.3 0.00 0.00 0.00 1017.8
20260507122632 0 15 0.9 2.6 0.00 0.00 0.00 1017.8
20260507122127 0 35 0.9 2.6 0.00 0.00 0.00 1017.7
20260507121623 0 25 0.0 1.7 0.00 0.00 0.00 1017.6
20260507121114 0 43 0.0 5.2 0.00 0.00 0.00 1017.7
20260507120610 0 15 0.9 1.7 0.00 0.00 0.00 1017.8
20260507120107 0 8 0.0 1.7 0.00 0.00 0.00 1017.8
20260507115604 0 31 1.7 2.6 0.00 0.00 0.00 1017.7
20260507115100 0 357 0.9 1.7 0.00 0.00 0.00 1017.7
20260507114555 0 63 0.9 4.3 0.00 0.00 0.00 1017.7
20260507114053 0 7 0.0 4.3 0.00 0.00 0.00 1017.5
20260507113550 0 9 0.0 1.7 0.00 0.00 0.00 1017.4
20260507113047 0 21 0.0 0.0 0.00 0.00 0.00 1017.6
20260507112545 0 0 0.0 0.0 0.00 0.00 0.00 1017.5
20260507112041 0 8 0.0 0.0 0.00 0.00 0.00 1017.4
20260507111539 0 7 0.0 0.0 0.00 0.00 0.00 1017.1
20260507111035 0 8 0.0 0.0 0.00 0.00 0.00 1017.4
20260507110532 0 8 0.0 0.0 0.00 0.00 0.00 1017.3
20260507110028 0 8 0.0 0.0 0.00 0.00 0.00 1017.0
20260507105525 0 8 0.0 0.0 0.00 0.00 0.00 1017.3
20260507105021 0 8 0.0 0.0 0.00 0.00 0.00 1017.0
20260507104519 0 8 0.0 0.0 0.00 0.00 0.00 1017.1
20260507104016 0 7 0.0 0.0 0.00 0.00 0.00 1017.0
20260507103511 0 7 0.0 0.0 0.00 0.00 0.00 1017.0
20260507103008 0 7 0.0 0.0 0.00 0.00 0.00 1016.9
20260507102505 0 7 0.0 0.0 0.00 0.00 0.00 1016.9
20260507102001 0 8 0.0 0.0 0.00 0.00 0.00 1016.9
20260507101456 0 8 0.0 0.0 0.00 0.00 0.00 1017.0
20260507100953 0 7 0.0 0.0 0.00 0.00 0.00 1017.1
20260507100450 0 8 0.0 0.0 0.00 0.00 0.00 1017.1
20260507095948 0 8 0.0 0.0 0.00 0.00 0.00 1017.1
20260507095446 0 6 0.0 0.0 0.00 0.00 0.00 1016.9
20260507094942 0 6 0.0 0.0 0.00 0.00 0.00 1016.9
20260507094438 0 8 0.0 0.0 0.00 0.00 0.00 1016.8
20260507093935 0 7 0.0 0.0 0.00 0.00 0.00 1016.9
20260507093433 0 8 0.0 0.0 0.00 0.00 0.00 1016.8
20260507092931 0 8 0.0 0.0 0.00 0.00 0.00 1016.8
20260507092427 0 8 0.0 0.0 0.00 0.00 0.00 1016.7
20260507091924 0 7 0.0 0.0 0.00 0.00 0.00 1016.7
20260507091421 0 9 0.0 0.0 0.00 0.00 0.00 1016.9
20260507090916 0 7 0.0 0.0 0.00 0.00 0.00 1016.6
20260507090412 0 7 0.0 0.0 0.00 0.00 0.00 1016.4
20260507085909 0 7 0.0 0.0 0.00 0.00 0.00 1016.9
20260507085406 0 7 0.0 0.0 0.00 0.00 0.00 1016.7
20260507084904 0 8 0.0 0.0 0.00 0.00 0.00 1016.6
20260507084400 0 8 0.0 0.0 0.00 0.00 0.00 1016.5
20260507083857 0 8 0.0 0.0 0.00 0.00 0.00 1016.7
20260507083354 0 8 0.0 0.0 0.00 0.00 0.00 1016.8
20260507082850 0 8 0.0 0.0 0.00 0.00 0.00 1016.7
20260507082345 0 8 0.0 0.0 0.00 0.00 0.00 1016.7
20260507081843 0 6 0.0 0.0 0.00 0.00 0.00 1016.8
20260507081339 0 8 0.0 0.0 0.00 0.00 0.00 1016.7
20260507080836 0 13 0.0 0.0 0.00 0.00 0.00 1016.7
20260507080332 0 6 0.0 0.0 0.00 0.00 0.00 1016.6
20260507075828 0 6 0.0 0.0 0.00 0.00 0.00 1016.8
20260507075324 0 6 0.0 0.0 0.00 0.00 0.00 1016.6
20260507074821 0 6 0.0 0.0 0.00 0.00 0.00 1016.6
20260507074318 0 11 0.0 0.0 0.00 0.00 0.00 1016.9
20260507073815 0 13 0.0 0.0 0.00 0.00 0.00 1016.7
20260507073312 0 16 0.0 0.0 0.00 0.00 0.00 1016.6
20260507072809 0 6 0.0 0.0 0.00 0.00 0.00 1016.7
20260507072308 0 6 0.0 0.0 0.00 0.00 0.00 1016.7
20260507071804 0 6 0.0 0.0 0.00 0.00 0.00 1016.6
20260507071300 0 7 0.0 0.0 0.00 0.00 0.00 1016.8
20260507070757 0 7 0.0 0.0 0.00 0.00 0.00 1016.5
20260507070254 0 6 0.0 0.0 0.00 0.00 0.00 1016.8
20260507065750 0 6 0.0 0.0 0.00 0.00 0.00 1016.7
20260507065247 0 7 0.0 0.0 0.00 0.00 0.00 1016.5
20260507064744 0 7 0.0 0.0 0.00 0.00 0.00 1016.9
20260507064243 0 6 0.0 0.0 0.00 0.00 0.00 1016.7
20260507063740 0 6 0.0 0.0 0.00 0.00 0.00 1016.9
20260507063237 0 6 0.0 0.0 0.00 0.00 0.00 1016.8
20260507062734 0 7 0.0 0.0 0.00 0.00 0.00 1016.8
20260507062231 0 6 0.0 0.0 0.00 0.00 0.00 1016.8
20260507061730 0 9 0.0 0.0 0.00 0.00 0.00 1016.8
20260507061227 0 9 0.0 0.0 0.00 0.00 0.00 1016.6
20260507060725 0 9 0.0 0.0 0.00 0.00 0.00 1016.6
20260507060221 0 9 0.0 0.0 0.00 0.00 0.00 1016.8
20260507055718 0 9 0.0 0.0 0.00 0.00 0.00 1016.9
20260507055213 0 9 0.0 0.0 0.00 0.00 0.00 1016.8
20260507054709 0 9 0.0 0.0 0.00 0.00 0.00 1016.8
20260507054206 0 9 0.0 0.0 0.00 0.00 0.00 1016.8
20260507053704 0 9 0.0 0.0 0.00 0.00 0.00 1017.0
20260507053202 0 9 0.0 0.0 0.00 0.00 0.00 1017.1
20260507052701 0 9 0.0 0.0 0.00 0.00 0.00 1017.1
20260507052156 0 9 0.0 0.0 0.00 0.00 0.00 1016.9
20260507051654 0 9 0.0 0.0 0.00 0.00 0.00 1017.3
20260507051150 0 9 0.0 0.0 0.00 0.00 0.00 1017.4
20260507050647 0 9 0.0 0.0 0.00 0.00 0.00 1017.3
20260507050144 0 9 0.0 0.0 0.00 0.00 0.00 1017.3
20260507045641 0 9 0.0 0.0 0.00 0.00 0.00 1017.3
20260507045137 0 9 0.0 0.0 0.00 0.00 0.00 1017.1
20260507044634 0 9 0.0 0.0 0.00 0.00 0.00 1017.1
20260507044131 0 9 0.0 0.0 0.00 0.00 0.00 1017.4
20260507043627 0 13 0.0 0.0 0.00 0.00 0.00 1017.4
20260507043125 0 13 0.0 0.0 0.00 0.00 0.00 1017.3
20260507042621 0 13 0.0 0.0 0.00 0.00 0.00 1017.3
20260507042116 0 13 0.0 0.0 0.00 0.00 0.00 1017.3
20260507041613 0 13 0.0 0.0 0.00 0.00 0.00 1017.1
20260507041110 0 15 0.0 0.0 0.00 0.00 0.00 1016.9
20260507040607 0 10 0.0 0.0 0.00 0.00 0.00 1016.9
20260507040103 0 9 0.0 0.0 0.00 0.00 0.00 1017.1
20260507035559 0 9 0.0 0.0 0.00 0.42 0.42 1017.3
20260507035055 0 9 0.0 0.0 0.00 0.42 0.42 1017.0
20260507034552 0 9 0.0 0.0 0.00 0.42 0.42 1017.1
20260507034050 0 10 0.0 0.0 0.00 0.42 0.42 1017.0
20260507033547 0 10 0.0 0.0 0.00 0.42 0.42 1017.0
20260507033039 0 12 0.0 0.0 0.00 0.42 0.42 1016.9
20260507032536 0 12 0.0 0.0 0.00 0.42 0.42 1017.3
20260507032032 0 12 0.0 0.0 0.00 0.42 0.42 1017.4
20260507031528 0 10 0.0 0.0 0.00 0.42 0.42 1017.3
20260507031026 0 10 0.0 0.0 0.00 0.42 0.42 1017.5
20260507030523 0 10 0.0 0.0 0.00 0.42 0.42 1017.5
20260507030021 0 11 0.0 0.0 0.00 0.42 0.42 1017.5
20260507025517 0 11 0.0 0.0 0.00 0.42 0.42 1017.1
20260507025015 0 14 0.0 0.0 0.00 0.42 0.42 1017.3
20260507024512 0 14 0.0 0.0 0.00 0.42 0.42 1017.4
20260507024009 0 14 0.0 0.0 0.00 0.42 0.42 1017.3
20260507023505 0 14 0.0 0.0 0.00 0.42 0.42 1017.3
20260507023003 0 14 0.0 0.0 0.00 0.42 0.42 1017.3
20260507022459 0 14 0.0 0.0 0.00 0.42 0.42 1017.1
20260507021954 0 14 0.0 0.0 0.00 0.42 0.42 1017.1
20260507021450 0 14 0.0 0.0 0.00 0.42 0.42 1017.3
20260507020947 0 14 0.0 0.0 0.00 0.42 0.42 1017.0
20260507020444 0 14 0.0 0.0 0.00 0.42 0.42 1017.1
20260507015941 0 15 0.0 0.0 0.00 0.42 0.42 1017.3
20260507015439 0 11 0.0 0.0 0.00 0.42 0.42 1017.0
20260507014930 0 19 0.0 0.0 0.00 0.42 0.42 1016.6
20260507014427 0 19 0.0 0.9 0.00 0.42 0.42 1016.8
20260507013923 0 21 0.0 0.0 0.00 0.42 0.42 1016.7
20260507013420 0 22 0.0 0.0 0.00 0.42 0.42 1016.5
20260507012918 0 12 0.0 0.0 0.00 0.42 0.42 1016.3
20260507012414 0 28 0.0 0.9 0.00 0.42 0.42 1016.6
20260507011911 0 27 0.0 0.0 0.00 0.42 0.42 1016.3
20260507011408 0 24 0.0 0.0 0.00 0.42 0.42 1016.4
20260507010908 0 19 0.0 0.0 0.00 0.42 0.42 1016.4
20260507010403 0 25 0.0 0.9 0.00 0.42 0.42 1016.4
20260507005900 0 17 0.0 0.0 0.00 0.42 0.42 1016.8
20260507005357 0 26 0.0 0.9 0.00 0.42 0.42 1016.5
20260507004848 0 32 0.0 0.9 0.00 0.42 0.42 1016.9
20260507004345 0 22 0.9 1.7 0.00 0.42 0.42 1016.7
20260507003843 0 49 0.0 2.6 0.00 0.42 0.42 1016.3
20260507003338 0 23 1.7 2.6 0.00 0.42 0.42 1016.3
20260507002833 0 9 0.0 2.6 0.00 0.42 0.42 1016.4
20260507002329 0 55 0.9 4.3 0.00 0.42 0.42 1016.2
20260507001827 0 21 0.0 2.6 0.00 0.42 0.42 1016.0
20260507001324 0 17 0.0 1.7 0.00 0.42 0.42 1015.9
20260507000820 0 68 1.7 4.3 0.00 0.42 0.42 1015.9
20260507000316 0 23 0.9 2.6 0.00 0.42 0.42 1015.7
20260506235813 0 69 1.7 2.6 0.00 0.42 0.42 1015.6
20260506235309 0 58 1.7 2.6 0.00 0.42 0.42 1015.8
20260506234805 0 24 0.9 4.3 0.00 0.42 0.42 1015.5
20260506234303 0 67 1.7 1.7 0.00 0.42 0.42 1015.5
20260506233800 0 19 0.9 1.7 0.00 0.42 0.42 1015.4
20260506233256 0 55 1.7 4.3 0.00 0.42 0.42 1015.1
20260506232753 0 21 0.9 5.2 0.00 0.42 0.42 1015.2
20260506232248 0 42 0.9 1.7 0.00 0.42 0.42 1015.4
20260506231745 0 56 1.7 1.7 0.00 0.42 0.42 1015.2
20260506231244 0 4 0.9 2.6 0.00 0.42 0.42 1015.6
20260506230740 0 29 0.0 6.1 0.00 0.42 0.42 1015.4
20260506230237 0 14 1.7 4.3 0.00 0.42 0.42 1015.4
20260506225734 0 19 0.9 1.7 0.00 0.42 0.42 1015.5
20260506225231 0 16 1.7 2.6 0.00 0.42 0.42 1015.6
20260506224727 0 110 2.6 2.6 0.00 0.42 0.42 1015.6
20260506224224 0 21 1.7 5.2 0.00 0.42 0.42 1015.6
20260506223721 0 88 3.5 5.2 0.00 0.42 0.42 1015.7
20260506223216 0 339 0.9 1.7 0.00 0.42 0.42 1015.8
20260506222714 0 338 2.6 5.2 0.00 0.42 0.42 1015.9
20260506222209 0 43 2.6 5.2 0.00 0.42 0.42 1016.1
20260506221707 0 18 0.9 4.3 0.00 0.42 0.42 1015.6
20260506221205 0 30 0.9 1.7 0.00 0.42 0.42 1015.8
20260506220702 0 85 0.9 1.7 0.00 0.42 0.42 1016.1
20260506220157 0 353 0.0 5.2 0.00 0.42 0.42 1015.8
20260506215654 0 344 1.7 6.1 0.00 0.42 0.42 1015.9
20260506215149 0 80 0.9 6.1 0.00 0.42 0.42 1015.5
20260506214646 0 348 1.7 2.6 0.00 0.42 0.42 1015.5
20260506214143 0 45 1.7 5.2 0.00 0.42 0.42 1015.3
20260506213642 0 16 0.0 2.6 0.00 0.42 0.42 1015.3
20260506213139 0 8 0.0 1.7 0.00 0.42 0.42 1015.0
20260506212636 0 72 1.7 2.6 0.00 0.42 0.42 1015.0
20260506212130 0 80 2.6 5.2 0.00 0.42 0.42 1015.1
20260506211626 0 21 0.0 2.6 0.00 0.42 0.42 1015.2
20260506211123 0 108 1.7 1.7 0.00 0.42 0.42 1014.9
20260506210620 0 314 0.9 5.2 0.00 0.42 0.42 1015.0
20260506210117 0 10 0.0 0.9 0.00 0.42 0.42 1014.8
20260506205614 0 49 1.7 5.2 0.00 0.42 0.42 1014.7
20260506205108 0 7 0.0 1.7 0.00 0.42 0.42 1015.0
20260506204607 0 18 0.9 6.1 0.00 0.42 0.42 1014.8
20260506204103 0 21 0.9 2.6 0.00 0.42 0.42 1015.0
20260506203602 0 118 3.5 4.3 0.00 0.42 0.42 1015.1
20260506203058 0 41 1.7 2.6 0.00 0.42 0.42 1014.9
20260506202556 0 341 3.5 4.3 0.00 0.42 0.42 1015.1
20260506202052 0 25 0.9 2.6 0.00 0.42 0.42 1014.9
20260506201549 0 31 0.9 1.7 0.00 0.42 0.42 1015.2
20260506201046 0 4 2.6 2.6 0.00 0.42 0.42 1014.9
20260506200542 0 45 1.7 4.3 0.00 0.42 0.42 1014.8
20260506200039 0 24 3.5 5.2 0.00 0.42 0.42 1014.9
20260506195536 0 27 0.9 1.7 0.00 0.42 0.42 1015.0
20260506195032 0 71 3.5 5.2 0.00 0.42 0.42 1014.8
20260506194530 0 53 1.7 4.3 0.00 0.42 0.42 1015.0
20260506194026 0 222 1.7 1.7 0.00 0.42 0.42 1015.0
20260506193523 0 1 2.6 6.1 0.00 0.42 0.42 1015.0
20260506193020 0 15 1.7 5.2 0.00 0.42 0.42 1015.0
20260506192517 0 10 0.9 4.3 0.00 0.42 0.42 1014.8
20260506192013 0 9 0.9 2.6 0.00 0.42 0.42 1014.6
20260506191510 0 351 0.9 5.2 0.00 0.42 0.42 1014.8
20260506191006 0 43 1.7 2.6 0.00 0.42 0.42 1014.6
20260506190503 0 31 2.6 5.2 0.00 0.42 0.42 1014.7
20260506190000 0 340 0.9 2.6 0.00 0.42 0.42 1014.8
20260506185458 0 71 4.3 7.8 0.00 0.42 0.42 1014.9
20260506184954 0 349 0.9 1.7 0.00 0.42 0.42 1015.1
20260506184451 0 342 0.9 5.2 0.00 0.42 0.42 1015.1
20260506183943 0 31 0.9 5.2 0.00 0.42 0.42 1014.9
20260506183438 0 65 1.7 2.6 0.00 0.42 0.42 1015.0
20260506182936 0 49 1.7 2.6 0.00 0.42 0.42 1015.0
20260506182433 0 28 0.9 4.3 0.00 0.42 0.42 1014.8
20260506181930 0 351 0.9 1.7 0.00 0.42 0.42 1014.7
20260506181427 0 42 0.0 2.6 0.00 0.42 0.42 1014.8
20260506180918 0 325 0.9 4.3 0.00 0.42 0.42 1015.2
20260506180415 0 260 0.9 4.3 0.00 0.42 0.42 1015.0
20260506175912 0 353 0.0 4.3 0.00 0.42 0.42 1015.2
20260506175409 0 20 2.6 6.1 0.00 0.42 0.42 1014.7
20260506174905 0 355 1.7 5.2 0.00 0.42 0.42 1015.0
20260506174403 0 2 0.0 2.6 0.00 0.42 0.42 1015.2
20260506173900 0 46 0.9 4.3 0.00 0.42 0.42 1015.1
20260506173357 0 69 3.5 4.3 0.00 0.42 0.42 1015.3
20260506172854 0 55 5.2 7.8 0.00 0.42 0.42 1014.8
20260506172350 0 84 0.9 4.3 0.00 0.42 0.42 1015.1
20260506171848 0 97 1.7 6.1 0.00 0.42 0.42 1015.4
20260506171344 0 35 0.0 2.6 0.00 0.42 0.42 1015.1
20260506170842 0 93 1.7 7.0 0.00 0.42 0.42 1015.4
20260506170337 0 32 1.7 2.6 0.00 0.42 0.42 1015.3
20260506165831 0 203 2.6 4.3 0.00 0.42 0.42 1015.1
20260506165328 0 56 2.6 4.3 0.00 0.42 0.42 1015.0
20260506164819 0 4 0.9 4.3 0.00 0.42 0.42 1015.0
20260506164316 0 24 0.9 7.0 0.00 0.42 0.42 1014.9
20260506163814 0 2 2.6 2.6 0.00 0.42 0.42 1015.1
20260506163308 0 67 0.9 2.6 0.00 0.42 0.42 1014.9
20260506162803 0 114 0.0 5.2 0.00 0.42 0.42 1015.3
20260506162302 0 163 1.7 1.7 0.00 0.42 0.42 1015.1
20260506161753 0 357 4.3 5.2 0.00 0.42 0.42 1015.3
20260506161250 0 191 1.7 4.3 0.00 0.42 0.42 1015.4
20260506160748 0 98 0.0 2.6 0.00 0.42 0.42 1015.3
20260506160244 0 75 1.7 6.1 0.00 0.42 0.42 1015.1
20260506155743 0 19 0.9 4.3 0.00 0.42 0.42 1015.2
20260506155239 0 42 2.6 6.1 0.00 0.42 0.42 1015.2
20260506153347 0 74 0.9 2.6 0.00 0.42 0.42 1014.9
20260506152844 0 10 0.9 2.6 0.00 0.42 0.42 1014.8
20260506152341 0 99 0.9 2.6 0.00 0.42 0.42 1014.7
20260506151839 0 64 1.7 4.3 0.00 0.42 0.42 1014.5
20260506151336 0 45 1.7 4.3 0.00 0.42 0.42 1014.7
20260506150833 0 10 0.9 5.2 0.00 0.42 0.42 1014.5
20260506150330 0 116 2.6 4.3 0.00 0.42 0.42 1014.8
20260506145826 0 125 1.7 4.3 0.00 0.42 0.42 1014.3
20260506145323 0 60 0.9 4.3 0.00 0.42 0.42 1014.4
20260506144821 0 57 1.7 1.7 0.00 0.42 0.42 1014.2
20260506144317 0 197 2.6 5.2 0.00 0.42 0.42 1014.1
20260506143816 0 38 0.9 1.7 0.00 0.42 0.42 1014.1
20260506143312 0 94 2.6 5.2 0.00 0.42 0.42 1014.1